Time,TemperatureF,DewpointF,PressureIn,WindDirection,WindDirectionDegrees,WindSpeedMPH,WindSpeedGustMPH,Humidity,HourlyPrecipIn,Conditions,Clouds,dailyrainin,SoftwareType,DateUTC
2013-04-10 00:01:00,46.0,38.3,30.20,NNE,30,9.0,13.0,44,0.00,,,0.00,meteohub,2013-04-10 07:01:00,
2013-04-10 00:06:00,46.0,38.1,30.20,NNW,339,11.0,15.0,44,0.00,,,0.00,meteohub,2013-04-10 07:06:00,
2013-04-10 00:12:00,46.0,38.1,30.20,NNE,30,10.0,15.0,44,0.00,,,0.00,meteohub,2013-04-10 07:12:00,
2013-04-10 00:17:00,46.0,38.1,30.20,NW,326,8.0,16.0,44,0.00,,,0.00,meteohub,2013-04-10 07:17:00,
2013-04-10 00:22:00,46.2,38.1,30.21,North,6,12.0,16.0,44,0.00,,,0.00,meteohub,2013-04-10 07:22:00,
2013-04-10 00:27:00,46.2,37.9,30.20,NNW,330,8.0,17.0,44,0.00,,,0.00,meteohub,2013-04-10 07:27:00,
2013-04-10 00:32:00,46.2,37.9,30.21,North,354,12.0,17.0,44,0.00,,,0.00,meteohub,2013-04-10 07:32:00,
2013-04-10 00:37:00,46.0,37.8,30.21,NNE,20,6.0,17.0,44,0.00,,,0.00,meteohub,2013-04-10 07:37:00,
2013-04-10 00:43:00,46.0,37.8,30.21,NNW,328,6.0,15.0,44,0.00,,,0.00,meteohub,2013-04-10 07:43:00,
2013-04-10 00:48:00,46.0,37.8,30.21,North,4,15.0,15.0,44,0.00,,,0.00,meteohub,2013-04-10 07:48:00,
2013-04-10 00:53:00,46.2,37.6,30.21,North,349,11.0,17.0,44,0.00,,,0.00,meteohub,2013-04-10 07:53:00,
2013-04-10 00:58:00,46.4,37.6,30.21,NE,53,9.0,17.0,44,0.00,,,0.00,meteohub,2013-04-10 07:58:00,
2013-04-10 01:04:00,46.6,37.6,30.21,North,0,17.0,17.0,44,0.00,,,0.00,meteohub,2013-04-10 08:04:00,
2013-04-10 01:09:00,46.6,37.4,30.21,NE,34,14.0,20.0,44,0.00,,,0.00,meteohub,2013-04-10 08:09:00,
2013-04-10 01:14:00,47.3,37.4,30.20,NE,40,14.0,20.0,44,0.00,,,0.00,meteohub,2013-04-10 08:14:00,
2013-04-10 01:20:00,47.7,37.4,30.20,NNE,15,18.0,25.0,44,0.00,,,0.00,meteohub,2013-04-10 08:20:00,
2013-04-10 01:25:00,47.7,37.2,30.20,NNE,15,17.0,25.0,44,0.00,,,0.00,meteohub,2013-04-10 08:25:00,
2013-04-10 01:30:00,47.5,37.2,30.20,NE,34,12.0,19.0,44,0.00,,,0.00,meteohub,2013-04-10 08:30:00,
2013-04-10 01:36:00,46.9,37.2,30.20,NE,37,14.0,19.0,44,0.00,,,0.00,meteohub,2013-04-10 08:36:00,
2013-04-10 01:41:00,46.9,37.0,30.20,NE,37,10.0,18.0,44,0.00,,,0.00,meteohub,2013-04-10 08:41:00,
2013-04-10 01:46:00,46.8,37.0,30.20,NE,43,11.0,20.0,44,0.00,,,0.00,meteohub,2013-04-10 08:46:00,
2013-04-10 01:51:00,46.8,36.3,30.20,NW,321,14.0,20.0,43,0.00,,,0.00,meteohub,2013-04-10 08:51:00,
2013-04-10 01:56:00,46.6,36.3,30.20,NE,36,8.0,18.0,43,0.00,,,0.00,meteohub,2013-04-10 08:56:00,
2013-04-10 02:01:00,46.6,36.3,30.19,North,354,9.0,18.0,43,0.00,,,0.00,meteohub,2013-04-10 09:01:00,
2013-04-10 02:06:00,46.4,36.3,30.20,NE,40,10.0,17.0,43,0.00,,,0.00,meteohub,2013-04-10 09:06:00,
2013-04-10 02:12:00,46.2,36.1,30.20,North,351,10.0,15.0,43,0.00,,,0.00,meteohub,2013-04-10 09:12:00,
2013-04-10 02:17:00,46.6,36.1,30.20,NNE,13,8.0,17.0,43,0.00,,,0.00,meteohub,2013-04-10 09:17:00,
2013-04-10 02:22:00,46.4,36.1,30.20,North,349,6.0,17.0,43,0.00,,,0.00,meteohub,2013-04-10 09:22:00,
2013-04-10 02:27:00,46.0,36.1,30.19,NNE,33,14.0,17.0,43,0.00,,,0.00,meteohub,2013-04-10 09:27:00,
2013-04-10 02:32:00,46.9,36.0,30.20,NE,46,4.0,16.0,43,0.00,,,0.00,meteohub,2013-04-10 09:32:00,
2013-04-10 02:38:00,46.2,36.0,30.20,NE,40,5.0,16.0,43,0.00,,,0.00,meteohub,2013-04-10 09:38:00,
2013-04-10 02:43:00,46.6,36.0,30.19,NNE,22,4.0,16.0,43,0.00,,,0.00,meteohub,2013-04-10 09:43:00,
2013-04-10 02:48:00,46.2,36.0,30.19,NE,36,3.0,14.0,43,0.00,,,0.00,meteohub,2013-04-10 09:48:00,
2013-04-10 02:53:00,46.0,36.0,30.19,North,8,5.0,14.0,43,0.00,,,0.00,meteohub,2013-04-10 09:53:00,
2013-04-10 02:58:00,46.0,36.0,30.20,NNE,32,3.0,9.0,43,0.00,,,0.00,meteohub,2013-04-10 09:58:00,
2013-04-10 03:03:00,46.0,36.0,30.19,NNE,26,4.0,9.0,43,0.00,,,0.00,meteohub,2013-04-10 10:03:00,
2013-04-10 03:08:00,46.0,36.0,30.19,NNE,27,7.0,11.0,43,0.00,,,0.00,meteohub,2013-04-10 10:08:00,
2013-04-10 03:14:00,46.2,35.8,30.19,NNE,16,9.0,11.0,43,0.00,,,0.00,meteohub,2013-04-10 10:14:00,
2013-04-10 03:19:00,46.0,35.8,30.19,NE,43,5.0,14.0,43,0.00,,,0.00,meteohub,2013-04-10 10:19:00,
2013-04-10 03:24:00,46.0,35.8,30.19,NNE,20,9.0,14.0,43,0.00,,,0.00,meteohub,2013-04-10 10:24:00,
2013-04-10 03:30:00,46.4,35.6,30.19,NE,40,6.0,12.0,43,0.00,,,0.00,meteohub,2013-04-10 10:30:00,
2013-04-10 03:35:00,46.0,35.6,30.19,NNE,22,4.0,15.0,43,0.00,,,0.00,meteohub,2013-04-10 10:35:00,
2013-04-10 03:40:00,45.9,35.6,30.19,NE,36,5.0,15.0,43,0.00,,,0.00,meteohub,2013-04-10 10:40:00,
2013-04-10 03:45:00,46.0,35.4,30.19,NNE,23,9.0,11.0,43,0.00,,,0.00,meteohub,2013-04-10 10:45:00,
2013-04-10 03:51:00,46.6,35.4,30.19,NE,41,4.0,11.0,43,0.00,,,0.00,meteohub,2013-04-10 10:51:00,
2013-04-10 03:56:00,46.8,35.4,30.19,NE,34,8.0,12.0,43,0.00,,,0.00,meteohub,2013-04-10 10:56:00,
2013-04-10 04:02:00,46.6,35.4,30.19,North,0,8.0,12.0,43,0.00,,,0.00,meteohub,2013-04-10 11:02:00,
2013-04-10 04:07:00,46.4,35.4,30.19,NE,46,7.0,12.0,43,0.00,,,0.00,meteohub,2013-04-10 11:07:00,
2013-04-10 04:12:00,46.6,35.2,30.19,NE,39,7.0,13.0,43,0.00,,,0.00,meteohub,2013-04-10 11:12:00,
2013-04-10 04:18:00,46.6,35.2,30.19,North,4,10.0,15.0,43,0.00,,,0.00,meteohub,2013-04-10 11:18:00,
2013-04-10 04:23:00,46.6,35.2,30.19,NW,317,10.0,16.0,43,0.00,,,0.00,meteohub,2013-04-10 11:23:00,
2013-04-10 04:28:00,46.9,35.2,30.19,North,352,9.0,19.0,43,0.00,,,0.00,meteohub,2013-04-10 11:28:00,
2013-04-10 04:34:00,46.8,35.1,30.19,NE,34,14.0,19.0,43,0.00,,,0.00,meteohub,2013-04-10 11:34:00,
2013-04-10 04:39:00,46.9,35.1,30.19,NNE,33,9.0,18.0,43,0.00,,,0.00,meteohub,2013-04-10 11:39:00,
2013-04-10 04:44:00,46.9,35.1,30.19,NE,36,10.0,18.0,43,0.00,,,0.00,meteohub,2013-04-10 11:44:00,
2013-04-10 04:50:00,46.8,35.1,30.19,NNE,25,10.0,22.0,43,0.00,,,0.00,meteohub,2013-04-10 11:50:00,
2013-04-10 04:55:00,46.8,35.1,30.19,NE,40,11.0,22.0,43,0.00,,,0.00,meteohub,2013-04-10 11:55:00,
2013-04-10 05:01:00,46.8,34.9,30.19,NNE,30,11.0,26.0,43,0.00,,,0.00,meteohub,2013-04-10 12:01:00,
2013-04-10 05:06:00,46.9,34.9,30.19,NNE,13,17.0,26.0,43,0.00,,,0.00,meteohub,2013-04-10 12:06:00,
2013-04-10 05:12:00,46.9,34.9,30.19,NE,42,12.0,22.0,43,0.00,,,0.00,meteohub,2013-04-10 12:12:00,
2013-04-10 05:17:00,46.9,34.7,30.19,NE,34,14.0,22.0,43,0.00,,,0.00,meteohub,2013-04-10 12:17:00,
2013-04-10 05:22:00,46.9,34.7,30.19,NE,45,12.0,22.0,43,0.00,,,0.00,meteohub,2013-04-10 12:22:00,
2013-04-10 05:28:00,46.9,34.7,30.19,North,1,15.0,22.0,43,0.00,,,0.00,meteohub,2013-04-10 12:28:00,
2013-04-10 05:34:00,46.6,34.7,30.19,NE,41,7.0,22.0,43,0.00,,,0.00,meteohub,2013-04-10 12:34:00,
2013-04-10 05:39:00,46.4,34.5,30.19,North,5,6.0,22.0,43,0.00,,,0.00,meteohub,2013-04-10 12:39:00,
2013-04-10 05:44:00,46.0,34.5,30.19,NNE,19,14.0,20.0,43,0.00,,,0.00,meteohub,2013-04-10 12:44:00,
2013-04-10 05:49:00,45.7,34.5,30.19,NE,54,9.0,15.0,43,0.00,,,0.00,meteohub,2013-04-10 12:49:00,
2013-04-10 05:55:00,45.7,34.5,30.19,NE,39,6.0,15.0,43,0.00,,,0.00,meteohub,2013-04-10 12:55:00,
2013-04-10 06:00:00,45.5,34.5,30.20,NE,45,5.0,15.0,43,0.00,,,0.00,meteohub,2013-04-10 13:00:00,
2013-04-10 06:05:00,45.7,34.3,30.20,NE,40,12.0,15.0,43,0.00,,,0.00,meteohub,2013-04-10 13:05:00,
2013-04-10 06:10:00,45.5,34.3,30.20,NE,43,6.0,14.0,43,0.00,,,0.00,meteohub,2013-04-10 13:10:00,
2013-04-10 06:16:00,45.0,34.3,30.21,NNE,31,0.0,14.0,43,0.00,,,0.00,meteohub,2013-04-10 13:16:00,
2013-04-10 06:22:00,45.0,34.3,30.21,NE,51,1.0,14.0,43,0.00,,,0.00,meteohub,2013-04-10 13:22:00,
2013-04-10 06:27:00,45.0,34.3,30.21,NE,43,3.0,11.0,43,0.00,,,0.00,meteohub,2013-04-10 13:27:00,
2013-04-10 06:32:00,45.0,34.3,30.21,NNE,18,2.0,7.0,43,0.00,,,0.00,meteohub,2013-04-10 13:32:00,
2013-04-10 06:38:00,44.8,34.3,30.21,NE,37,5.0,7.0,43,0.00,,,0.00,meteohub,2013-04-10 13:38:00,
2013-04-10 06:43:00,45.1,34.3,30.21,NE,36,6.0,7.0,43,0.00,,,0.00,meteohub,2013-04-10 13:43:00,
2013-04-10 06:48:00,45.7,34.3,30.21,NNE,26,7.0,7.0,43,0.00,,,0.00,meteohub,2013-04-10 13:48:00,
2013-04-10 06:53:00,46.0,34.3,30.22,NNE,33,6.0,10.0,43,0.00,,,0.00,meteohub,2013-04-10 13:53:00,
2013-04-10 06:59:00,46.2,34.3,30.22,NE,42,9.0,15.0,43,0.00,,,0.00,meteohub,2013-04-10 13:59:00,
2013-04-10 07:04:00,46.6,34.2,30.23,NE,53,4.0,15.0,43,0.00,,,0.00,meteohub,2013-04-10 14:04:00,
2013-04-10 07:09:00,46.8,34.2,30.23,NE,56,4.0,15.0,43,0.00,,,0.00,meteohub,2013-04-10 14:09:00,
2013-04-10 07:15:00,46.8,34.0,30.24,NE,43,6.0,13.0,43,0.00,,,0.00,meteohub,2013-04-10 14:15:00,
2013-04-10 07:20:00,46.9,34.0,30.23,NE,44,7.0,9.0,43,0.00,,,0.00,meteohub,2013-04-10 14:20:00,
2013-04-10 07:25:00,47.1,34.0,30.23,NE,46,9.0,13.0,43,0.00,,,0.00,meteohub,2013-04-10 14:25:00,
2013-04-10 07:30:00,47.3,34.0,30.23,NE,43,11.0,13.0,43,0.00,,,0.00,meteohub,2013-04-10 14:30:00,
2013-04-10 07:36:00,47.5,34.0,30.23,NNE,19,14.0,15.0,43,0.00,,,0.00,meteohub,2013-04-10 14:36:00,
2013-04-10 07:41:00,47.7,34.0,30.23,NNE,13,10.0,15.0,43,0.00,,,0.00,meteohub,2013-04-10 14:41:00,
2013-04-10 07:46:00,48.0,34.0,30.23,NE,36,11.0,15.0,43,0.00,,,0.00,meteohub,2013-04-10 14:46:00,
2013-04-10 07:51:00,48.4,34.0,30.24,ENE,65,7.0,15.0,43,0.00,,,0.00,meteohub,2013-04-10 14:51:00,
2013-04-10 07:57:00,48.6,33.8,30.24,ENE,58,9.0,14.0,43,0.00,,,0.00,meteohub,2013-04-10 14:57:00,
2013-04-10 08:02:00,48.6,33.8,30.24,NE,42,5.0,13.0,43,0.00,,,0.00,meteohub,2013-04-10 15:02:00,
2013-04-10 08:07:00,48.9,33.8,30.25,NE,37,9.0,13.0,43,0.00,,,0.00,meteohub,2013-04-10 15:07:00,
2013-04-10 08:12:00,49.1,33.8,30.25,ENE,71,6.0,11.0,43,0.00,,,0.00,meteohub,2013-04-10 15:12:00,
2013-04-10 08:17:00,49.3,33.8,30.24,NNE,27,9.0,11.0,43,0.00,,,0.00,meteohub,2013-04-10 15:17:00,
2013-04-10 08:23:00,49.3,33.8,30.23,NNE,23,14.0,14.0,43,0.00,,,0.00,meteohub,2013-04-10 15:23:00,
2013-04-10 08:28:00,49.5,33.8,30.23,NE,46,10.0,18.0,43,0.00,,,0.00,meteohub,2013-04-10 15:28:00,
2013-04-10 08:34:00,49.3,33.8,30.23,NE,34,13.0,18.0,43,0.00,,,0.00,meteohub,2013-04-10 15:34:00,
2013-04-10 08:39:00,49.5,33.6,30.24,NE,43,9.0,18.0,43,0.00,,,0.00,meteohub,2013-04-10 15:39:00,
2013-04-10 08:44:00,50.2,33.6,30.24,NE,37,9.0,17.0,43,0.00,,,0.00,meteohub,2013-04-10 15:44:00,
2013-04-10 08:50:00,50.4,33.6,30.24,NE,38,5.0,17.0,43,0.00,,,0.00,meteohub,2013-04-10 15:50:00,
2013-04-10 08:55:00,50.4,33.6,30.24,ENE,63,6.0,13.0,43,0.00,,,0.00,meteohub,2013-04-10 15:55:00,
2013-04-10 09:01:00,50.4,33.6,30.24,ENE,64,10.0,12.0,43,0.00,,,0.00,meteohub,2013-04-10 16:01:00,
2013-04-10 09:06:00,50.4,33.6,30.24,NNE,16,15.0,17.0,43,0.00,,,0.00,meteohub,2013-04-10 16:06:00,
2013-04-10 09:12:00,50.5,33.6,30.24,NNE,25,9.0,17.0,43,0.00,,,0.00,meteohub,2013-04-10 16:12:00,
2013-04-10 09:17:00,50.9,33.6,30.25,NE,45,8.0,19.0,43,0.00,,,0.00,meteohub,2013-04-10 16:17:00,
2013-04-10 09:22:00,51.1,33.6,30.25,NNE,32,14.0,19.0,43,0.00,,,0.00,meteohub,2013-04-10 16:22:00,
2013-04-10 09:27:00,51.8,33.6,30.25,NE,51,14.0,19.0,43,0.00,,,0.00,meteohub,2013-04-10 16:27:00,
2013-04-10 09:32:00,51.8,33.6,30.25,NNE,19,6.0,18.0,43,0.00,,,0.00,meteohub,2013-04-10 16:32:00,
2013-04-10 09:37:00,52.2,33.8,30.25,NNE,29,9.0,18.0,43,0.00,,,0.00,meteohub,2013-04-10 16:37:00,
2013-04-10 09:42:00,52.2,33.8,30.25,North,353,14.0,17.0,43,0.00,,,0.00,meteohub,2013-04-10 16:42:00,
2013-04-10 09:47:00,52.3,33.8,30.25,NNE,30,9.0,17.0,43,0.00,,,0.00,meteohub,2013-04-10 16:47:00,
2013-04-10 09:52:00,52.5,33.8,30.25,NE,37,13.0,18.0,43,0.00,,,0.00,meteohub,2013-04-10 16:52:00,
2013-04-10 09:57:00,52.9,33.8,30.25,NE,34,9.0,19.0,43,0.00,,,0.00,meteohub,2013-04-10 16:57:00,
2013-04-10 10:03:00,53.2,33.8,30.25,NNE,27,13.0,19.0,43,0.00,,,0.00,meteohub,2013-04-10 17:03:00,
2013-04-10 10:08:00,53.1,33.8,30.25,NNE,15,15.0,19.0,43,0.00,,,0.00,meteohub,2013-04-10 17:08:00,
2013-04-10 10:13:00,53.1,33.8,30.25,NE,44,17.0,18.0,43,0.00,,,0.00,meteohub,2013-04-10 17:13:00,
2013-04-10 10:18:00,53.4,33.8,30.25,NE,40,13.0,18.0,43,0.00,,,0.00,meteohub,2013-04-10 17:18:00,
2013-04-10 10:24:00,53.6,33.8,30.25,ESE,115,11.0,18.0,43,0.00,,,0.00,meteohub,2013-04-10 17:24:00,
2013-04-10 10:29:00,53.8,33.8,30.25,NNE,20,7.0,18.0,43,0.00,,,0.00,meteohub,2013-04-10 17:29:00,
2013-04-10 10:34:00,54.5,33.8,30.25,NE,56,7.0,22.0,43,0.00,,,0.00,meteohub,2013-04-10 17:34:00,
2013-04-10 10:39:00,54.5,34.0,30.25,NE,56,9.0,22.0,43,0.00,,,0.00,meteohub,2013-04-10 17:39:00,
2013-04-10 10:45:00,54.7,34.0,30.25,NNE,26,15.0,22.0,43,0.00,,,0.00,meteohub,2013-04-10 17:45:00,
2013-04-10 10:50:00,54.1,34.0,30.25,NNE,30,10.0,19.0,43,0.00,,,0.00,meteohub,2013-04-10 17:50:00,
2013-04-10 10:55:00,54.1,34.0,30.24,NE,50,15.0,20.0,43,0.00,,,0.00,meteohub,2013-04-10 17:55:00,
2013-04-10 11:00:00,54.5,34.0,30.25,NE,51,12.0,20.0,43,0.00,,,0.00,meteohub,2013-04-10 18:00:00,
2013-04-10 11:05:00,54.7,34.0,30.24,NNE,20,8.0,21.0,43,0.00,,,0.00,meteohub,2013-04-10 18:05:00,
2013-04-10 11:11:00,55.2,34.5,30.24,North,349,18.0,21.0,44,0.00,,,0.00,meteohub,2013-04-10 18:11:00,
2013-04-10 11:16:00,55.0,34.7,30.25,NNE,33,9.0,21.0,44,0.00,,,0.00,meteohub,2013-04-10 18:16:00,
2013-04-10 11:22:00,55.2,34.9,30.25,ENE,57,7.0,19.0,44,0.00,,,0.00,meteohub,2013-04-10 18:22:00,
2013-04-10 11:27:00,55.4,34.9,30.25,ENE,63,10.0,19.0,44,0.00,,,0.00,meteohub,2013-04-10 18:27:00,
2013-04-10 11:32:00,55.2,34.9,30.24,NNE,33,12.0,17.0,44,0.00,,,0.00,meteohub,2013-04-10 18:32:00,
2013-04-10 11:37:00,55.9,34.9,30.24,NNE,30,13.0,17.0,44,0.00,,,0.00,meteohub,2013-04-10 18:37:00,
2013-04-10 11:42:00,55.2,34.9,30.24,NNE,15,4.0,17.0,44,0.00,,,0.00,meteohub,2013-04-10 18:42:00,
2013-04-10 11:47:00,55.8,35.1,30.24,NNE,32,5.0,17.0,44,0.00,,,0.00,meteohub,2013-04-10 18:47:00,
2013-04-10 11:52:00,56.5,35.1,30.24,NE,36,12.0,18.0,44,0.00,,,0.00,meteohub,2013-04-10 18:52:00,
2013-04-10 11:58:00,56.5,35.1,30.24,ENE,64,12.0,18.0,44,0.00,,,0.00,meteohub,2013-04-10 18:58:00,
2013-04-10 12:03:00,56.3,35.1,30.24,NNE,30,14.0,16.0,44,0.00,,,0.00,meteohub,2013-04-10 19:03:00,
2013-04-10 12:08:00,56.1,35.1,30.23,NNE,23,5.0,16.0,44,0.00,,,0.00,meteohub,2013-04-10 19:08:00,
2013-04-10 12:13:00,55.9,35.2,30.23,NNE,29,6.0,19.0,44,0.00,,,0.00,meteohub,2013-04-10 19:13:00,
2013-04-10 12:18:00,56.3,35.2,30.23,NNE,32,12.0,22.0,44,0.00,,,0.00,meteohub,2013-04-10 19:18:00,
2013-04-10 12:23:00,56.8,35.2,30.23,NE,40,16.0,22.0,44,0.00,,,0.00,meteohub,2013-04-10 19:23:00,
2013-04-10 12:28:00,57.6,35.2,30.23,NE,38,10.0,22.0,44,0.00,,,0.00,meteohub,2013-04-10 19:28:00,
2013-04-10 12:33:00,57.6,35.2,30.23,NE,34,11.0,21.0,44,0.00,,,0.00,meteohub,2013-04-10 19:33:00,
2013-04-10 12:39:00,57.0,35.2,30.23,NE,37,2.0,21.0,44,0.00,,,0.00,meteohub,2013-04-10 19:39:00,
2013-04-10 12:44:00,57.9,35.2,30.23,ENE,61,13.0,20.0,44,0.00,,,0.00,meteohub,2013-04-10 19:44:00,
2013-04-10 12:49:00,57.6,35.4,30.23,NE,40,4.0,16.0,44,0.00,,,0.00,meteohub,2013-04-10 19:49:00,
2013-04-10 12:55:00,57.4,35.4,30.23,NNE,29,5.0,18.0,44,0.00,,,0.00,meteohub,2013-04-10 19:55:00,
2013-04-10 13:00:00,57.4,35.6,30.23,WSW,255,1.0,11.0,44,0.00,,,0.00,meteohub,2013-04-10 20:00:00,
2013-04-10 13:06:00,57.9,35.6,30.22,ENE,64,4.0,11.0,44,0.00,,,0.00,meteohub,2013-04-10 20:06:00,
2013-04-10 13:11:00,59.2,35.6,30.22,NE,34,9.0,12.0,44,0.00,,,0.00,meteohub,2013-04-10 20:11:00,
2013-04-10 13:17:00,58.8,35.8,30.22,NNE,12,6.0,14.0,44,0.00,,,0.00,meteohub,2013-04-10 20:17:00,
2013-04-10 13:22:00,59.7,35.8,30.22,NE,53,5.0,16.0,44,0.00,,,0.00,meteohub,2013-04-10 20:22:00,
2013-04-10 13:27:00,59.2,35.8,30.22,ENE,67,8.0,16.0,44,0.00,,,0.00,meteohub,2013-04-10 20:27:00,
2013-04-10 13:32:00,59.2,36.0,30.21,NNE,23,5.0,16.0,44,0.00,,,0.00,meteohub,2013-04-10 20:32:00,
2013-04-10 13:37:00,59.5,36.0,30.21,NE,37,4.0,14.0,44,0.00,,,0.00,meteohub,2013-04-10 20:37:00,
2013-04-10 13:42:00,59.4,36.0,30.21,ENE,57,6.0,14.0,44,0.00,,,0.00,meteohub,2013-04-10 20:42:00,
2013-04-10 13:47:00,60.1,36.1,30.21,NE,47,10.0,12.0,44,0.00,,,0.00,meteohub,2013-04-10 20:47:00,
2013-04-10 13:52:00,59.9,36.1,30.21,ENE,57,8.0,15.0,44,0.00,,,0.00,meteohub,2013-04-10 20:52:00,
2013-04-10 13:58:00,60.8,36.3,30.20,NE,36,13.0,15.0,44,0.00,,,0.00,meteohub,2013-04-10 20:58:00,
2013-04-10 14:03:00,60.3,36.5,30.20,NE,41,11.0,13.0,44,0.00,,,0.00,meteohub,2013-04-10 21:03:00,
2013-04-10 14:08:00,60.1,36.5,30.20,NNE,33,4.0,17.0,44,0.00,,,0.00,meteohub,2013-04-10 21:08:00,
2013-04-10 14:13:00,60.6,36.7,30.20,NNE,29,8.0,17.0,44,0.00,,,0.00,meteohub,2013-04-10 21:13:00,
2013-04-10 14:18:00,60.6,36.7,30.20,NE,49,5.0,17.0,44,0.00,,,0.00,meteohub,2013-04-10 21:18:00,
2013-04-10 14:24:00,62.2,36.9,30.19,NE,49,2.0,13.0,44,0.00,,,0.00,meteohub,2013-04-10 21:24:00,
2013-04-10 14:29:00,62.8,36.9,30.19,NE,47,3.0,13.0,44,0.00,,,0.00,meteohub,2013-04-10 21:29:00,
2013-04-10 14:34:00,61.9,37.0,30.19,WNW,289,2.0,10.0,44,0.00,,,0.00,meteohub,2013-04-10 21:34:00,
2013-04-10 14:39:00,62.2,37.0,30.19,NNE,33,3.0,11.0,44,0.00,,,0.00,meteohub,2013-04-10 21:39:00,
2013-04-10 14:45:00,61.9,37.0,30.18,North,353,5.0,11.0,44,0.00,,,0.00,meteohub,2013-04-10 21:45:00,
2013-04-10 14:50:00,61.2,37.0,30.18,East,93,10.0,21.0,44,0.00,,,0.00,meteohub,2013-04-10 21:50:00,
2013-04-10 14:56:00,61.0,37.9,30.18,North,350,6.0,21.0,45,0.00,,,0.00,meteohub,2013-04-10 21:56:00,
2013-04-10 15:01:00,61.2,37.9,30.18,SW,233,16.0,22.0,45,0.00,,,0.00,meteohub,2013-04-10 22:01:00,
2013-04-10 15:07:00,61.3,37.9,30.18,West,264,13.0,22.0,45,0.00,,,0.00,meteohub,2013-04-10 22:07:00,
2013-04-10 15:12:00,61.3,37.9,30.18,West,262,8.0,19.0,45,0.00,,,0.00,meteohub,2013-04-10 22:12:00,
2013-04-10 15:17:00,62.2,38.1,30.17,WSW,246,8.0,19.0,45,0.00,,,0.00,meteohub,2013-04-10 22:17:00,
2013-04-10 15:22:00,61.5,38.1,30.17,NW,307,16.0,18.0,45,0.00,,,0.00,meteohub,2013-04-10 22:22:00,
2013-04-10 15:27:00,61.2,38.3,30.17,NE,44,9.0,18.0,45,0.00,,,0.00,meteohub,2013-04-10 22:27:00,
2013-04-10 15:32:00,61.0,38.3,30.17,WSW,245,7.0,20.0,45,0.00,,,0.00,meteohub,2013-04-10 22:32:00,
2013-04-10 15:37:00,60.6,38.5,30.17,West,276,9.0,20.0,45,0.00,,,0.00,meteohub,2013-04-10 22:37:00,
2013-04-10 15:43:00,59.7,38.7,30.17,West,274,16.0,20.0,45,0.00,,,0.00,meteohub,2013-04-10 22:43:00,
2013-04-10 15:48:00,59.7,38.7,30.17,WSW,257,9.0,23.0,45,0.00,,,0.00,meteohub,2013-04-10 22:48:00,
2013-04-10 15:53:00,59.4,38.8,30.17,SW,229,12.0,23.0,45,0.00,,,0.00,meteohub,2013-04-10 22:53:00,
2013-04-10 15:58:00,60.1,38.8,30.17,WSW,239,9.0,23.0,45,0.00,,,0.00,meteohub,2013-04-10 22:58:00,
2013-04-10 16:04:00,59.7,39.0,30.16,SSW,198,12.0,23.0,45,0.00,,,0.00,meteohub,2013-04-10 23:04:00,
2013-04-10 16:09:00,59.4,39.0,30.17,SSW,208,8.0,23.0,45,0.00,,,0.00,meteohub,2013-04-10 23:09:00,
2013-04-10 16:15:00,59.4,39.2,30.16,NNE,22,8.0,23.0,45,0.00,,,0.00,meteohub,2013-04-10 23:15:00,
2013-04-10 16:20:00,59.5,39.2,30.16,West,260,11.0,20.0,45,0.00,,,0.00,meteohub,2013-04-10 23:20:00,
2013-04-10 16:26:00,59.4,39.4,30.16,NW,305,7.0,22.0,45,0.00,,,0.00,meteohub,2013-04-10 23:26:00,
2013-04-10 16:31:00,58.8,39.6,30.16,WSW,246,9.0,22.0,45,0.00,,,0.00,meteohub,2013-04-10 23:31:00,
2013-04-10 16:36:00,58.6,39.7,30.16,SSW,198,10.0,22.0,45,0.00,,,0.00,meteohub,2013-04-10 23:36:00,
2013-04-10 16:42:00,58.6,39.7,30.15,NNW,335,6.0,19.0,45,0.00,,,0.00,meteohub,2013-04-10 23:42:00,
2013-04-10 16:47:00,58.6,39.7,30.15,WSW,248,11.0,19.0,45,0.00,,,0.00,meteohub,2013-04-10 23:47:00,
2013-04-10 16:52:00,57.7,39.7,30.15,WSW,239,14.0,18.0,45,0.00,,,0.00,meteohub,2013-04-10 23:52:00,
2013-04-10 16:57:00,57.6,39.9,30.15,SSE,148,10.0,22.0,45,0.00,,,0.00,meteohub,2013-04-10 23:57:00,
2013-04-10 17:03:00,57.7,39.9,30.15,West,274,8.0,22.0,45,0.00,,,0.00,meteohub,2013-04-11 00:03:00,
2013-04-10 17:08:00,57.6,40.1,30.15,SSW,198,16.0,22.0,45,0.00,,,0.00,meteohub,2013-04-11 00:08:00,
2013-04-10 17:13:00,57.4,40.3,30.15,WSW,256,12.0,21.0,45,0.00,,,0.00,meteohub,2013-04-11 00:13:00,
2013-04-10 17:18:00,57.4,40.3,30.15,WNW,301,8.0,21.0,45,0.00,,,0.00,meteohub,2013-04-11 00:18:00,
2013-04-10 17:23:00,56.8,40.5,30.16,SW,229,14.0,19.0,45,0.00,,,0.00,meteohub,2013-04-11 00:23:00,
2013-04-10 17:28:00,57.4,40.5,30.15,West,266,8.0,20.0,45,0.00,,,0.00,meteohub,2013-04-11 00:28:00,
2013-04-10 17:33:00,57.6,40.6,30.15,SW,231,5.0,20.0,45,0.00,,,0.00,meteohub,2013-04-11 00:33:00,
2013-04-10 17:39:00,57.4,40.6,30.15,West,270,10.0,18.0,45,0.00,,,0.00,meteohub,2013-04-11 00:39:00,
2013-04-10 17:44:00,57.0,40.8,30.15,SW,235,15.0,18.0,45,0.00,,,0.00,meteohub,2013-04-11 00:44:00,
2013-04-10 17:49:00,56.5,40.8,30.15,SW,219,13.0,18.0,45,0.00,,,0.00,meteohub,2013-04-11 00:49:00,
2013-04-10 17:55:00,56.5,41.0,30.14,SE,137,5.0,18.0,45,0.00,,,0.00,meteohub,2013-04-11 00:55:00,
2013-04-10 18:00:00,56.3,41.2,30.14,North,6,8.0,18.0,45,0.00,,,0.00,meteohub,2013-04-11 01:00:00,
2013-04-10 18:05:00,55.8,41.2,30.15,North,350,7.0,18.0,45,0.00,,,0.00,meteohub,2013-04-11 01:05:00,
2013-04-10 18:10:00,55.4,41.4,30.15,WSW,256,13.0,19.0,45,0.00,,,0.00,meteohub,2013-04-11 01:10:00,
2013-04-10 18:15:00,54.9,41.4,30.14,NNE,12,6.0,19.0,45,0.00,,,0.00,meteohub,2013-04-11 01:15:00,
2013-04-10 18:21:00,54.9,41.5,30.14,West,274,12.0,15.0,45,0.00,,,0.00,meteohub,2013-04-11 01:21:00,
2013-04-10 18:26:00,54.7,41.5,30.14,NNE,12,5.0,16.0,45,0.00,,,0.00,meteohub,2013-04-11 01:26:00,
2013-04-10 18:31:00,54.3,41.5,30.14,West,262,12.0,16.0,45,0.00,,,0.00,meteohub,2013-04-11 01:31:00,
2013-04-10 18:36:00,53.8,41.5,30.14,NNW,343,13.0,17.0,45,0.00,,,0.00,meteohub,2013-04-11 01:36:00,
2013-04-10 18:41:00,53.4,41.5,30.14,WNW,290,8.0,17.0,45,0.00,,,0.00,meteohub,2013-04-11 01:41:00,
2013-04-10 18:46:00,53.1,41.5,30.14,ENE,60,9.0,17.0,45,0.00,,,0.00,meteohub,2013-04-11 01:46:00,
2013-04-10 18:51:00,52.5,41.7,30.14,NNE,18,11.0,16.0,45,0.00,,,0.00,meteohub,2013-04-11 01:51:00,
2013-04-10 18:56:00,52.2,41.7,30.15,West,266,6.0,17.0,45,0.00,,,0.00,meteohub,2013-04-11 01:56:00,
2013-04-10 19:02:00,51.4,41.9,30.14,WSW,257,11.0,17.0,45,0.00,,,0.00,meteohub,2013-04-11 02:02:00,
2013-04-10 19:07:00,50.5,41.9,30.15,WSW,253,11.0,17.0,45,0.00,,,0.00,meteohub,2013-04-11 02:07:00,
2013-04-10 19:13:00,49.8,41.9,30.14,West,271,10.0,17.0,45,0.00,,,0.00,meteohub,2013-04-11 02:13:00,
2013-04-10 19:18:00,49.5,41.4,30.15,WNW,284,14.0,19.0,44,0.00,,,0.00,meteohub,2013-04-11 02:18:00,
2013-04-10 19:23:00,49.1,41.4,30.15,West,264,14.0,19.0,44,0.00,,,0.00,meteohub,2013-04-11 02:23:00,
2013-04-10 19:29:00,48.7,41.4,30.15,NW,307,8.0,19.0,44,0.00,,,0.00,meteohub,2013-04-11 02:29:00,
2013-04-10 19:34:00,48.6,41.4,30.15,WNW,301,7.0,16.0,44,0.00,,,0.00,meteohub,2013-04-11 02:34:00,
2013-04-10 19:39:00,48.4,41.4,30.15,NNW,342,4.0,14.0,44,0.00,,,0.00,meteohub,2013-04-11 02:39:00,
2013-04-10 19:44:00,47.8,41.4,30.15,WSW,249,8.0,14.0,44,0.00,,,0.00,meteohub,2013-04-11 02:44:00,
2013-04-10 19:49:00,47.8,41.4,30.15,West,262,9.0,11.0,44,0.00,,,0.00,meteohub,2013-04-11 02:49:00,
2013-04-10 19:54:00,47.8,41.4,30.15,SW,236,8.0,12.0,44,0.00,,,0.00,meteohub,2013-04-11 02:54:00,
2013-04-10 20:00:00,47.7,41.4,30.16,West,259,8.0,13.0,44,0.00,,,0.00,meteohub,2013-04-11 03:00:00,
2013-04-10 20:05:00,47.5,41.2,30.16,WSW,243,11.0,12.0,44,0.00,,,0.00,meteohub,2013-04-11 03:05:00,
2013-04-10 20:10:00,47.7,41.2,30.16,WNW,291,7.0,13.0,44,0.00,,,0.00,meteohub,2013-04-11 03:10:00,
2013-04-10 20:15:00,47.7,41.2,30.16,WSW,239,9.0,13.0,44,0.00,,,0.00,meteohub,2013-04-11 03:15:00,
2013-04-10 20:22:00,47.7,41.2,30.16,WSW,250,9.0,13.0,44,0.00,,,0.00,meteohub,2013-04-11 03:22:00,
2013-04-10 20:27:00,47.7,41.2,30.16,SW,231,10.0,12.0,44,0.00,,,0.00,meteohub,2013-04-11 03:27:00,
2013-04-10 20:32:00,47.8,41.0,30.16,West,264,10.0,12.0,44,0.00,,,0.00,meteohub,2013-04-11 03:32:00,
2013-04-10 20:37:00,48.0,41.0,30.17,West,274,9.0,13.0,44,0.00,,,0.00,meteohub,2013-04-11 03:37:00,
2013-04-10 20:42:00,48.2,41.0,30.17,West,270,8.0,13.0,44,0.00,,,0.00,meteohub,2013-04-11 03:42:00,
2013-04-10 20:47:00,48.4,41.0,30.17,West,259,11.0,13.0,44,0.00,,,0.00,meteohub,2013-04-11 03:47:00,
2013-04-10 20:52:00,48.6,40.5,30.17,WNW,287,9.0,13.0,43,0.00,,,0.00,meteohub,2013-04-11 03:52:00,
2013-04-10 20:57:00,48.7,40.5,30.17,WSW,255,10.0,13.0,43,0.00,,,0.00,meteohub,2013-04-11 03:57:00,
2013-04-10 21:00:00,48.6,40.5,30.17,WNW,290,8.0,13.0,43,0.00,,,0.00,meteohub,2013-04-11 04:00:00,
2013-04-10 21:02:00,48.4,40.3,30.18,WNW,285,6.0,13.0,43,0.00,,,0.00,meteohub,2013-04-11 04:02:00,
2013-04-10 21:03:00,48.2,40.5,30.18,WSW,249,8.0,13.0,43,0.00,,,0.00,meteohub,2013-04-11 04:03:00,
2013-04-10 21:09:00,48.2,40.3,30.18,West,280,9.0,13.0,43,0.00,,,0.00,meteohub,2013-04-11 04:09:00,
2013-04-10 21:14:00,48.6,40.3,30.18,NNW,330,10.0,12.0,43,0.00,,,0.00,meteohub,2013-04-11 04:14:00,
2013-04-10 21:19:00,48.9,40.3,30.18,West,274,9.0,12.0,43,0.00,,,0.00,meteohub,2013-04-11 04:19:00,
2013-04-10 21:24:00,48.4,40.3,30.18,WNW,285,2.0,13.0,43,0.00,,,0.00,meteohub,2013-04-11 04:24:00,
2013-04-10 21:30:00,47.8,40.3,30.18,ENE,70,2.0,13.0,43,0.00,,,0.00,meteohub,2013-04-11 04:30:00,
2013-04-10 21:35:00,47.7,40.1,30.18,SW,233,6.0,11.0,43,0.00,,,0.00,meteohub,2013-04-11 04:35:00,
2013-04-10 21:40:00,47.8,40.1,30.18,SW,232,10.0,10.0,43,0.00,,,0.00,meteohub,2013-04-11 04:40:00,
2013-04-10 21:45:00,48.4,40.1,30.19,West,278,6.0,11.0,43,0.00,,,0.00,meteohub,2013-04-11 04:45:00,
2013-04-10 21:51:00,48.7,40.1,30.19,West,271,8.0,11.0,43,0.00,,,0.00,meteohub,2013-04-11 04:51:00,
2013-04-10 21:56:00,48.9,39.9,30.18,SW,230,7.0,11.0,43,0.00,,,0.00,meteohub,2013-04-11 04:56:00,
2013-04-10 22:01:00,49.3,39.9,30.18,WSW,240,7.0,10.0,43,0.00,,,0.00,meteohub,2013-04-11 05:01:00,
2013-04-10 22:07:00,49.3,39.9,30.18,West,266,7.0,10.0,43,0.00,,,0.00,meteohub,2013-04-11 05:07:00,
2013-04-10 22:12:00,49.5,39.4,30.18,West,264,8.0,10.0,42,0.00,,,0.00,meteohub,2013-04-11 05:12:00,
2013-04-10 22:17:00,49.8,39.4,30.18,WSW,257,7.0,10.0,42,0.00,,,0.00,meteohub,2013-04-11 05:17:00,
2013-04-10 22:22:00,49.6,39.2,30.18,West,264,6.0,10.0,42,0.00,,,0.00,meteohub,2013-04-11 05:22:00,
2013-04-10 22:27:00,49.6,39.2,30.17,WSW,253,7.0,10.0,42,0.00,,,0.00,meteohub,2013-04-11 05:27:00,
2013-04-10 22:32:00,49.8,39.0,30.17,WSW,253,5.0,8.0,42,0.00,,,0.00,meteohub,2013-04-11 05:32:00,
2013-04-10 22:37:00,50.7,39.0,30.17,WSW,246,7.0,8.0,42,0.00,,,0.00,meteohub,2013-04-11 05:37:00,
2013-04-10 22:42:00,51.6,39.0,30.17,West,274,4.0,9.0,42,0.00,,,0.00,meteohub,2013-04-11 05:42:00,
2013-04-10 22:47:00,52.0,39.0,30.17,WSW,238,5.0,9.0,42,0.00,,,0.00,meteohub,2013-04-11 05:47:00,
2013-04-10 22:52:00,51.6,38.8,30.17,West,259,4.0,9.0,42,0.00,,,0.00,meteohub,2013-04-11 05:52:00,
2013-04-10 22:58:00,50.7,38.8,30.17,WSW,245,5.0,9.0,42,0.00,,,0.00,meteohub,2013-04-11 05:58:00,
2013-04-10 23:03:00,50.4,38.8,30.17,WSW,245,7.0,9.0,42,0.00,,,0.00,meteohub,2013-04-11 06:03:00,
2013-04-10 23:08:00,50.2,38.8,30.17,WSW,245,4.0,8.0,42,0.00,,,0.00,meteohub,2013-04-11 06:08:00,
2013-04-10 23:13:00,50.4,38.7,30.17,West,274,5.0,8.0,42,0.00,,,0.00,meteohub,2013-04-11 06:13:00,
2013-04-10 23:18:00,50.4,38.7,30.16,WSW,240,4.0,8.0,42,0.00,,,0.00,meteohub,2013-04-11 06:18:00,
2013-04-10 23:23:00,49.8,38.7,30.16,West,266,6.0,8.0,42,0.00,,,0.00,meteohub,2013-04-11 06:23:00,
2013-04-10 23:28:00,49.5,38.7,30.16,SW,236,6.0,8.0,42,0.00,,,0.00,meteohub,2013-04-11 06:28:00,
2013-04-10 23:33:00,49.6,38.5,30.16,West,271,9.0,9.0,42,0.00,,,0.00,meteohub,2013-04-11 06:33:00,
2013-04-10 23:38:00,50.2,38.5,30.16,WSW,239,11.0,12.0,42,0.00,,,0.00,meteohub,2013-04-11 06:38:00,
2013-04-10 23:44:00,50.4,38.5,30.16,SW,236,5.0,12.0,42,0.00,,,0.00,meteohub,2013-04-11 06:44:00,
2013-04-10 23:49:00,50.5,38.5,30.16,WSW,239,4.0,12.0,42,0.00,,,0.00,meteohub,2013-04-11 06:49:00,
2013-04-10 23:54:00,50.7,38.3,30.16,West,264,5.0,12.0,42,0.00,,,0.00,meteohub,2013-04-11 06:54:00,